ASTRA 2F

Last updated on Mon Oct 20 2025 00:02:47 GMT+0000 (Coordinated Universal Time)

1 38778U 12051A 25292.27286391 .00000148 00000+0 00000+0 0 9991 2 38778 0.0620 255.5629 0004282 320.6712 298.2137 1.00270002 38728
UTC large
Height (km)
Speed (km/s)
/
Latitude / Longitude
Inclination (degrees)
Orbital Period (minutes)
Azimuth
Elevation
Range (km)
Doppler Factor

Next 0 passes for location: London (51.5072 / 0.1276)

Sorry there are no passes over London.